Daviess Cnty AP, Washington,, IN

9:50 AM EDT on October 14, 2019 (GMT -0400)
Daviess County

Weather History for KDCY - June, 2019

Change the Weather History Date:

Thursday, June 13, 2019

  Actual Average (KLWV) Record (KLWV)
Temperature  
Mean Temperature 61 °F -  
Max Temperature 71 °F 80 °F 95 °F (2017)
Min Temperature 50 °F 61 °F 54 °F (2012)
Degree Days  
Heating Degree Days 4    
Growing Degree Days 11 (Base 50)    
Moisture  
Dew Point 46 °F    
Average Humidity 59    
Maximum Humidity 87    
Minimum Humidity 31    
Precipitation  
Precipitation 0.00 in - - ()
Sea Level Pressure  
Sea Level Pressure 29.94 in    
Wind  
Wind Speed 10 mph (WNW)    
Max Wind Speed 28 mph    
Max Gust Speed 37 mph    
Visibility 10 miles    
Events      
Averages and records for this station are not official NWS values.
T = Trace of Precipitation, MM = Missing Value Source: NWS Daily Summary

Daily Weather History Graph

Daily Weather History Graph

Search for Another Location

Airport or City:

Astronomy

Jun. 13, 2019 Rise Set
Actual Time 6:23 AM EDT 9:14 PM EDT
Civil Twilight 5:51 AM EDT 9:45 PM EDT
Nautical Twilight 5:11 AM EDT 10:26 PM EDT
Astronomical Twilight 4:25 AM EDT 11:11 PM EDT
Moon 5:30 PM EDT (6/13) 4:05 AM EDT (6/13)
Length of Visible Light 15h 54m
Length of Day
14h 50m
Waxing Gibbous, 85% of the Moon is Illuminated
Jun 13
Waxing Gibbous
Jun 17
Full
Jun 25
Last Quarter
Jul 2
New
Jul 9
First Quarter

Hourly Weather History & Observations

Time (EDT) Temp. Dew Point Humidity Pressure Visibility Wind Dir Wind Speed Gust Speed Precip Events Conditions
12:15 AM 61.7 °F 52.3 °F 71% 29.84 in 10.0 mi WSW 5.8 mph - N/A   Overcast
12:35 AM 60.8 °F 53.1 °F 76% 29.83 in 10.0 mi WSW 5.8 mph - N/A   Mostly Cloudy
12:55 AM 59.9 °F 53.6 °F 80% 29.83 in 10.0 mi WSW 4.6 mph - N/A   Mostly Cloudy
1:15 AM 61.0 °F 54.1 °F 78% 29.82 in 10.0 mi WSW 5.8 mph - N/A   Overcast
1:35 AM 60.8 °F 54.9 °F 81% 29.81 in 10.0 mi WSW 6.9 mph - N/A   Overcast
1:55 AM 59.9 °F 55.4 °F 85% 29.81 in 10.0 mi WSW 6.9 mph - N/A   Scattered Clouds
2:15 AM 60.1 °F 55.9 °F 86% 29.80 in 10.0 mi WSW 5.8 mph - N/A   Mostly Cloudy
2:35 AM 60.4 °F 56.3 °F 86% 29.80 in 10.0 mi West 11.5 mph - N/A   Overcast
2:55 AM 60.4 °F 55.9 °F 85% 29.79 in 10.0 mi West 8.1 mph - N/A   Overcast
3:15 AM 60.4 °F 55.9 °F 85% 29.79 in 10.0 mi West 9.2 mph 16.1 mph N/A   Overcast
3:35 AM 60.8 °F 55.0 °F 81% 29.79 in 10.0 mi West 10.4 mph 20.7 mph N/A   Overcast
3:55 AM 60.6 °F 54.0 °F 79% 29.79 in 10.0 mi West 15.0 mph 20.7 mph N/A   Overcast
4:10 AM 60.1 °F 53.1 °F 78% 29.80 in 10.0 mi West 12.7 mph 21.9 mph N/A   Overcast
4:35 AM 59.7 °F 53.1 °F 79% 29.81 in 10.0 mi West 11.5 mph - N/A   Overcast
4:55 AM 59.5 °F 52.7 °F 78% 29.81 in 10.0 mi West 8.1 mph 17.3 mph N/A   Overcast
5:15 AM 59.5 °F 52.3 °F 77% 29.82 in 10.0 mi WNW 9.2 mph 18.4 mph N/A   Overcast
5:35 AM 59.5 °F 52.5 °F 78% 29.83 in 10.0 mi West 8.1 mph - N/A   Overcast
5:55 AM 59.0 °F 52.5 °F 79% 29.83 in 10.0 mi West 9.2 mph - N/A   Overcast
6:15 AM 58.5 °F 52.3 °F 80% 29.84 in 10.0 mi West 6.9 mph 16.1 mph N/A   Overcast
6:35 AM 58.3 °F 51.8 °F 79% 29.85 in 10.0 mi WNW 9.2 mph 16.1 mph N/A   Overcast
6:55 AM 57.4 °F 51.3 °F 80% 29.86 in 10.0 mi WNW 9.2 mph 18.4 mph N/A   Mostly Cloudy
7:15 AM 58.1 °F 51.1 °F 77% 29.87 in 10.0 mi WNW 13.8 mph 19.6 mph N/A   Scattered Clouds
7:35 AM 58.1 °F 50.9 °F 77% 29.88 in 10.0 mi WNW 12.7 mph 18.4 mph N/A   Overcast
7:55 AM 58.1 °F 50.4 °F 75% 29.89 in 10.0 mi WNW 12.7 mph - N/A   Overcast
8:15 AM 58.3 °F 50.4 °F 75% 29.90 in 10.0 mi WNW 10.4 mph 17.3 mph N/A   Overcast
8:35 AM 58.5 °F 50.4 °F 74% 29.90 in 10.0 mi NW 11.5 mph 20.7 mph N/A   Overcast
8:55 AM 59.2 °F 50.0 °F 72% 29.91 in 10.0 mi WNW 11.5 mph - N/A   Overcast
9:15 AM 59.2 °F 49.6 °F 71% 29.92 in 10.0 mi NW 12.7 mph 18.4 mph N/A   Mostly Cloudy
9:35 AM 62.1 °F 49.8 °F 64% 29.92 in 10.0 mi WNW 11.5 mph 21.9 mph N/A   Mostly Cloudy
9:55 AM 61.7 °F 48.4 °F 62% 29.93 in 10.0 mi NW 13.8 mph 21.9 mph N/A   Mostly Cloudy
10:15 AM 63.9 °F 48.9 °F 58% 29.93 in 10.0 mi NW 13.8 mph 26.5 mph N/A   Scattered Clouds
10:35 AM 63.9 °F 46.0 °F 52% 29.94 in 10.0 mi NW 21.9 mph 26.5 mph N/A   Scattered Clouds
10:55 AM 64.8 °F 44.2 °F 47% 29.94 in 10.0 mi WNW 21.9 mph 29.9 mph N/A   Scattered Clouds
11:15 AM 64.4 °F 43.0 °F 46% 29.95 in 10.0 mi WNW 19.6 mph 28.8 mph N/A   Mostly Cloudy
11:35 AM 65.3 °F 41.4 °F 42% 29.95 in 10.0 mi NW 20.7 mph 32.2 mph N/A   Scattered Clouds
11:55 AM 67.1 °F 41.9 °F 40% 29.95 in 10.0 mi NNW 21.9 mph 32.2 mph N/A   Scattered Clouds
12:15 PM 67.1 °F 40.8 °F 38% 29.96 in 10.0 mi NW 27.6 mph 36.8 mph N/A   Scattered Clouds
12:35 PM 67.5 °F 40.8 °F 38% 29.96 in 10.0 mi WNW 19.6 mph 33.4 mph N/A   Scattered Clouds
12:55 PM 67.6 °F 41.0 °F 38% 29.97 in 10.0 mi WNW 19.6 mph 31.1 mph N/A   Mostly Cloudy
1:15 PM 67.8 °F 41.0 °F 38% 29.97 in 10.0 mi NW 23.0 mph 29.9 mph N/A   Mostly Cloudy
1:35 PM 68.4 °F 40.8 °F 37% 29.98 in 10.0 mi NW 19.6 mph 31.1 mph N/A   Mostly Cloudy
1:55 PM 69.1 °F 41.0 °F 36% 29.98 in 10.0 mi NW 21.9 mph 31.1 mph N/A   Scattered Clouds
2:15 PM 68.9 °F 40.3 °F 35% 29.99 in 10.0 mi WNW 17.3 mph 26.5 mph N/A   Scattered Clouds
2:35 PM 69.3 °F 41.5 °F 37% 29.99 in 10.0 mi WNW 18.4 mph 25.3 mph N/A   Mostly Cloudy
2:55 PM 67.5 °F 40.6 °F 38% 30.00 in 10.0 mi NW 15.0 mph 28.8 mph N/A   Overcast
3:15 PM 68.9 °F 40.8 °F 36% 29.99 in 10.0 mi NW 18.4 mph 25.3 mph N/A   Mostly Cloudy
3:35 PM 69.6 °F 41.0 °F 35% 30.00 in 10.0 mi NW 16.1 mph 28.8 mph N/A   Mostly Cloudy
3:55 PM 69.8 °F 40.5 °F 34% 30.00 in 10.0 mi NW 18.4 mph 28.8 mph N/A   Mostly Cloudy
4:15 PM 68.0 °F 39.7 °F 36% 30.01 in 10.0 mi NW 18.4 mph 26.5 mph N/A   Mostly Cloudy
4:35 PM 70.3 °F 39.9 °F 33% 30.01 in 10.0 mi NW 19.6 mph 26.5 mph N/A   Mostly Cloudy
4:55 PM 68.9 °F 39.7 °F 35% 30.01 in 10.0 mi NNW 12.7 mph 21.9 mph N/A   Mostly Cloudy
5:15 PM 68.9 °F 39.6 °F 34% 30.01 in 10.0 mi NW 15.0 mph 24.2 mph N/A   Mostly Cloudy
5:35 PM 71.1 °F 39.4 °F 32% 30.02 in 10.0 mi NW 18.4 mph 28.8 mph N/A   Mostly Cloudy
5:55 PM 70.3 °F 39.0 °F 32% 30.02 in 10.0 mi NW 16.1 mph 20.7 mph N/A   Mostly Cloudy
6:15 PM 71.1 °F 39.0 °F 31% 30.02 in 10.0 mi NW 15.0 mph 23.0 mph N/A   Scattered Clouds
6:35 PM 70.7 °F 38.3 °F 31% 30.02 in 10.0 mi WNW 15.0 mph 23.0 mph N/A   Mostly Cloudy
6:55 PM 68.7 °F 39.0 °F 34% 30.02 in 10.0 mi NNW 13.8 mph 19.6 mph N/A   Scattered Clouds
7:15 PM 69.8 °F 38.8 °F 32% 30.03 in 10.0 mi NW 12.7 mph 19.6 mph N/A   Scattered Clouds
7:35 PM 69.1 °F 39.6 °F 34% 30.03 in 10.0 mi NW 12.7 mph - N/A   Scattered Clouds
7:55 PM 68.7 °F 39.6 °F 34% 30.03 in 10.0 mi NNW 9.2 mph - N/A   Clear
8:15 PM 67.8 °F 39.6 °F 36% 30.04 in 10.0 mi NNW 8.1 mph - N/A   Clear
8:35 PM 66.4 °F 40.3 °F 38% 30.04 in 10.0 mi NNW 8.1 mph - N/A   Clear
8:55 PM 64.6 °F 41.2 °F 42% 30.05 in 10.0 mi NNW 5.8 mph - N/A   Clear
9:15 PM 61.0 °F 43.0 °F 52% 30.05 in 10.0 mi NW 3.5 mph - N/A   Clear
9:35 PM 60.6 °F 42.6 °F 52% 30.06 in 10.0 mi Calm Calm - N/A   Clear
9:55 PM 55.6 °F 46.2 °F 71% 30.07 in 10.0 mi Calm Calm - N/A   Clear
10:15 PM 53.4 °F 47.5 °F 80% 30.07 in 10.0 mi Calm Calm - N/A   Clear
10:35 PM 53.8 °F 47.1 °F 78% 30.08 in 10.0 mi Calm Calm - N/A   Clear
10:55 PM 52.5 °F 47.8 °F 84% 30.09 in 10.0 mi Calm Calm - N/A   Clear
11:15 PM 52.5 °F 48.6 °F 86% 30.09 in 10.0 mi Calm Calm - N/A   Clear
11:35 PM 51.3 °F 47.5 °F 87% 30.10 in 10.0 mi Calm Calm - N/A   Clear
11:55 PM 50.9 °F 46.0 °F 83% 30.10 in 10.0 mi Calm Calm - N/A   Clear